Location: Buisson
(44.2787°N, 4.9969°E)
Time: 09:35:03
(UTC+00:00)

X-37B - Pass Details

Date: 26 September 2021
Orbit: 385 x 389 km, 45.0° (Epoch: 13 October)

Event Time Altitude Azimuth Distance (km) Brightness Sun altitude
Exits shadow 04:17:33 30° 265° (W) 720 1.3 -14.0°
Maximum altitude 04:18:57 84° 350° (N) 393 0.5 -13.8°
Drops below altitude 10° 04:22:09 10° 81° (E) 1,416 4.9 -13.2°
Sets 04:24:13 0° 82° (E) 2,272 6.6 -12.9°
